| time (UTC) | temp F | wind direction | speed MPH | gust MPH | rain 1hr in | rain 24hr in | rain mn in | humidity % | barometer mb |
| 20260504040544 | 45 | 111 | 1.0 | 2.0 | 0.00 | 0.00 | 0.00 | 69 | 1015.3 |
| 20260504040041 | 45 | 83 | 1.0 | 2.0 | 0.00 | 0.00 | 0.00 | 70 | 1015.4 |
| 20260504035538 | 45 | 81 | 2.0 | 2.0 | 0.00 | 0.00 | 0.00 | 70 | 1015.4 |
| 20260504035034 | 45 | 74 | 2.0 | 2.0 | 0.00 | 0.00 | 0.00 | 65 | 1015.5 |
| 20260504034532 | 45 | 101 | 2.0 | 3.0 | 0.00 | 0.00 | 0.00 | 66 | 1015.3 |
| 20260504034028 | 45 | 116 | 2.0 | 2.0 | 0.00 | 0.00 | 0.00 | 67 | 1015.2 |
| 20260504033527 | 45 | 95 | 1.0 | 2.0 | 0.00 | 0.00 | 0.00 | 67 | 1015.1 |
| 20260504033024 | 45 | 87 | 2.0 | 2.0 | 0.00 | 0.00 | 0.00 | 67 | 1015.2 |
| 20260504032520 | 45 | 66 | 2.0 | 3.0 | 0.00 | 0.00 | 0.00 | 68 | 1015.2 |
| 20260504032018 | 45 | 89 | 2.0 | 3.0 | 0.00 | 0.00 | 0.00 | 68 | 1015.3 |
| 20260504031515 | 45 | 93 | 2.0 | 2.0 | 0.00 | 0.00 | 0.00 | 66 | 1015.2 |
| 20260504031011 | 45 | 116 | 0.0 | 1.0 | 0.00 | 0.00 | 0.00 | 66 | 1015.5 |
| 20260504030509 | 45 | 95 | 2.0 | 2.0 | 0.00 | 0.00 | 0.00 | 66 | 1015.2 |
| 20260504030005 | 46 | 113 | 1.0 | 2.0 | 0.00 | 0.00 | 0.00 | 66 | 1015.1 |
| 20260504025502 | 46 | 77 | 2.0 | 3.0 | 0.00 | 0.00 | 0.00 | 64 | 1015.3 |
| 20260504024958 | 46 | 57 | 3.0 | 3.0 | 0.00 | 0.00 | 0.00 | 64 | 1015.3 |
| 20260504024454 | 46 | 79 | 2.0 | 3.0 | 0.00 | 0.00 | 0.00 | 63 | 1015.3 |
| 20260504023952 | 45 | 240 | 0.0 | 1.0 | 0.00 | 0.00 | 0.00 | 61 | 1015.4 |
| 20260504023449 | 45 | 227 | 0.0 | 2.0 | 0.00 | 0.00 | 0.00 | 63 | 1015.3 |
| 20260504022944 | 45 | 107 | 0.0 | 2.0 | 0.00 | 0.00 | 0.00 | 61 | 1015.1 |
| 20260504022440 | 45 | 76 | 0.0 | 2.0 | 0.00 | 0.00 | 0.00 | 62 | 1015.2 |
| 20260504021937 | 45 | 107 | 2.0 | 2.0 | 0.00 | 0.00 | 0.00 | 63 | 1015.3 |
| 20260504021434 | 45 | 58 | 2.0 | 3.0 | 0.00 | 0.00 | 0.00 | 62 | 1015.3 |
| 20260504020931 | 45 | 69 | 3.0 | 3.0 | 0.00 | 0.00 | 0.00 | 62 | 1015.2 |
| 20260504020428 | 45 | 128 | 0.0 | 2.0 | 0.00 | 0.00 | 0.00 | 60 | 1015.1 |
| 20260504015925 | 45 | 63 | 0.0 | 3.0 | 0.00 | 0.00 | 0.00 | 62 | 1015.2 |
| 20260504015421 | 46 | 108 | 2.0 | 2.0 | 0.00 | 0.00 | 0.00 | 61 | 1014.9 |
| 20260504014917 | 46 | 75 | 2.0 | 3.0 | 0.00 | 0.00 | 0.00 | 61 | 1015.0 |
| 20260504014413 | 46 | 280 | 0.0 | 2.0 | 0.00 | 0.00 | 0.00 | 56 | 1014.9 |
| 20260504013910 | 46 | 202 | 0.0 | 2.0 | 0.00 | 0.00 | 0.00 | 57 | 1014.8 |
| 20260504013408 | 46 | 89 | 0.0 | 2.0 | 0.00 | 0.00 | 0.00 | 58 | 1014.6 |
| 20260504012904 | 45 | 71 | 1.0 | 3.0 | 0.00 | 0.00 | 0.00 | 59 | 1014.7 |
| 20260504012402 | 45 | 180 | 0.0 | 1.0 | 0.00 | 0.00 | 0.00 | 56 | 1014.7 |
| 20260504011859 | 46 | 113 | 1.0 | 2.0 | 0.00 | 0.00 | 0.00 | 56 | 1014.6 |
| 20260504011356 | 46 | 102 | 0.0 | 2.0 | 0.00 | 0.00 | 0.00 | 56 | 1014.4 |
| 20260504010852 | 46 | 101 | 2.0 | 2.0 | 0.00 | 0.00 | 0.00 | 55 | 1014.3 |
| 20260504010348 | 47 | 72 | 2.0 | 2.0 | 0.00 | 0.00 | 0.00 | 52 | 1014.6 |
| 20260504005844 | 47 | 119 | 2.0 | 2.0 | 0.00 | 0.00 | 0.00 | 50 | 1014.4 |
| 20260504005341 | 48 | 100 | 0.0 | 2.0 | 0.00 | 0.00 | 0.00 | 52 | 1014.3 |
| 20260504004839 | 48 | 99 | 2.0 | 2.0 | 0.00 | 0.00 | 0.00 | 47 | 1014.4 |
| 20260504004336 | 49 | 89 | 2.0 | 2.0 | 0.00 | 0.00 | 0.00 | 46 | 1014.3 |
| 20260504003832 | 50 | 64 | 2.0 | 3.0 | 0.00 | 0.00 | 0.00 | 43 | 1014.1 |
| 20260504003330 | 51 | 78 | 3.0 | 3.0 | 0.00 | 0.00 | 0.00 | 42 | 1014.0 |
| 20260504002826 | 52 | 94 | 3.0 | 4.0 | 0.00 | 0.00 | 0.00 | 40 | 1014.1 |
| 20260504002323 | 53 | 102 | 4.0 | 4.0 | 0.00 | 0.00 | 0.00 | 38 | 1014.2 |
| 20260504001821 | 54 | 115 | 3.0 | 4.0 | 0.00 | 0.00 | 0.00 | 36 | 1014.0 |
| 20260504001318 | 55 | 99 | 4.0 | 4.0 | 0.00 | 0.00 | 0.00 | 34 | 1014.1 |
| 20260504000815 | 56 | 101 | 6.0 | 8.0 | 0.00 | 0.00 | 0.00 | 31 | 1014.1 |
| 20260504000312 | 56 | 91 | 6.0 | 6.0 | 0.00 | 0.00 | 0.00 | 31 | 1013.8 |
| 20260503235810 | 57 | 81 | 6.0 | 8.0 | 0.00 | 0.00 | 0.00 | 30 | 1014.1 |
| 20260503235307 | 58 | 73 | 6.0 | 9.0 | 0.00 | 0.00 | 0.00 | 30 | 1013.8 |
| 20260503234804 | 59 | 94 | 6.0 | 7.0 | 0.00 | 0.00 | 0.00 | 29 | 1013.9 |
| 20260503234302 | 59 | 105 | 5.0 | 8.0 | 0.00 | 0.00 | 0.00 | 29 | 1013.9 |
| 20260503233800 | 60 | 85 | 6.0 | 12.0 | 0.00 | 0.00 | 0.00 | 28 | 1014.0 |
| 20260503233255 | 60 | 88 | 7.0 | 12.0 | 0.00 | 0.00 | 0.00 | 26 | 1013.9 |
| 20260503232752 | 60 | 98 | 4.0 | 9.0 | 0.00 | 0.00 | 0.00 | 28 | 1013.8 |
| 20260503232249 | 60 | 108 | 7.0 | 11.0 | 0.00 | 0.00 | 0.00 | 28 | 1014.0 |
| 20260503231747 | 61 | 91 | 10.0 | 11.0 | 0.00 | 0.00 | 0.00 | 27 | 1013.8 |
| 20260503231244 | 61 | 105 | 7.0 | 11.0 | 0.00 | 0.00 | 0.00 | 26 | 1013.8 |
| 20260503230739 | 61 | 95 | 8.0 | 11.0 | 0.00 | 0.00 | 0.00 | 27 | 1013.7 |
| 20260503230237 | 61 | 97 | 8.0 | 13.0 | 0.00 | 0.00 | 0.00 | 25 | 1013.4 |
| 20260503225735 | 62 | 87 | 10.0 | 14.0 | 0.00 | 0.00 | 0.00 | 24 | 1013.6 |
| 20260503225235 | 62 | 116 | 7.0 | 10.0 | 0.00 | 0.00 | 0.00 | 26 | 1013.6 |
| 20260503224732 | 62 | 84 | 9.0 | 12.0 | 0.00 | 0.00 | 0.00 | 25 | 1013.8 |
| 20260503224230 | 62 | 127 | 14.0 | 14.0 | 0.00 | 0.00 | 0.00 | 24 | 1013.3 |
| 20260503223727 | 62 | 113 | 11.0 | 13.0 | 0.00 | 0.00 | 0.00 | 27 | 1013.7 |
| 20260503223225 | 62 | 96 | 7.0 | 11.0 | 0.00 | 0.00 | 0.00 | 28 | 1013.7 |
| 20260503222721 | 62 | 116 | 8.0 | 12.0 | 0.00 | 0.00 | 0.00 | 23 | 1013.7 |
| 20260503222219 | 62 | 98 | 8.0 | 10.0 | 0.00 | 0.00 | 0.00 | 25 | 1013.7 |
| 20260503221717 | 62 | 128 | 6.0 | 15.0 | 0.00 | 0.00 | 0.00 | 25 | 1013.9 |
| 20260503221214 | 62 | 105 | 9.0 | 12.0 | 0.00 | 0.00 | 0.00 | 24 | 1013.8 |
| 20260503220711 | 63 | 66 | 7.0 | 9.0 | 0.00 | 0.00 | 0.00 | 24 | 1013.6 |
| 20260503220208 | 63 | 85 | 8.0 | 12.0 | 0.00 | 0.00 | 0.00 | 25 | 1013.6 |
| 20260503215704 | 64 | 92 | 11.0 | 13.0 | 0.00 | 0.00 | 0.00 | 24 | 1013.8 |
| 20260503215201 | 64 | 92 | 6.0 | 6.0 | 0.00 | 0.00 | 0.00 | 24 | 1013.7 |
| 20260503214700 | 63 | 91 | 4.0 | 8.0 | 0.00 | 0.00 | 0.00 | 23 | 1013.4 |
| 20260503214155 | 63 | 101 | 5.0 | 7.0 | 0.00 | 0.00 | 0.00 | 24 | 1013.7 |
| 20260503213655 | 63 | 108 | 11.0 | 11.0 | 0.00 | 0.00 | 0.00 | 23 | 1013.8 |
| 20260503213151 | 64 | 104 | 15.0 | 17.0 | 0.00 | 0.00 | 0.00 | 24 | 1013.8 |
| 20260503212648 | 63 | 117 | 5.0 | 9.0 | 0.00 | 0.00 | 0.00 | 23 | 1013.8 |
| 20260503212146 | 62 | 150 | 6.0 | 11.0 | 0.00 | 0.00 | 0.00 | 24 | 1013.7 |
| 20260503211643 | 63 | 148 | 12.0 | 16.0 | 0.00 | 0.00 | 0.00 | 24 | 1013.9 |
| 20260503211138 | 62 | 139 | 11.0 | 16.0 | 0.00 | 0.00 | 0.00 | 23 | 1013.8 |
| 20260503210635 | 63 | 114 | 10.0 | 13.0 | 0.00 | 0.00 | 0.00 | 26 | 1013.9 |
| 20260503210132 | 62 | 93 | 6.0 | 10.0 | 0.00 | 0.00 | 0.00 | 23 | 1013.9 |
| 20260503205628 | 62 | 70 | 3.0 | 11.0 | 0.00 | 0.00 | 0.00 | 22 | 1014.0 |
| 20260503205124 | 62 | 133 | 10.0 | 11.0 | 0.00 | 0.00 | 0.00 | 24 | 1013.9 |
| 20260503204621 | 62 | 159 | 8.0 | 16.0 | 0.00 | 0.00 | 0.00 | 24 | 1013.9 |
| 20260503204119 | 62 | 166 | 9.0 | 13.0 | 0.00 | 0.00 | 0.00 | 23 | 1014.0 |
| 20260503203615 | 62 | 114 | 2.0 | 12.0 | 0.00 | 0.00 | 0.00 | 23 | 1014.1 |
| 20260503203113 | 62 | 150 | 4.0 | 11.0 | 0.00 | 0.00 | 0.00 | 23 | 1014.2 |
| 20260503202610 | 62 | 75 | 7.0 | 13.0 | 0.00 | 0.00 | 0.00 | 25 | 1014.3 |
| 20260503202108 | 62 | 103 | 9.0 | 15.0 | 0.00 | 0.00 | 0.00 | 28 | 1014.3 |
| 20260503201606 | 62 | 138 | 11.0 | 13.0 | 0.00 | 0.00 | 0.00 | 26 | 1014.3 |
| 20260503201103 | 63 | 153 | 10.0 | 12.0 | 0.00 | 0.00 | 0.00 | 24 | 1014.3 |
| 20260503200559 | 62 | 161 | 2.0 | 6.0 | 0.00 | 0.00 | 0.00 | 25 | 1014.4 |
| 20260503200056 | 61 | 106 | 4.0 | 7.0 | 0.00 | 0.00 | 0.00 | 27 | 1014.6 |
| 20260503195553 | 62 | 125 | 10.0 | 13.0 | 0.00 | 0.00 | 0.00 | 27 | 1014.5 |
| 20260503195049 | 61 | 23 | 11.0 | 12.0 | 0.00 | 0.00 | 0.00 | 31 | 1014.4 |
| 20260503194547 | 61 | 165 | 6.0 | 11.0 | 0.00 | 0.00 | 0.00 | 25 | 1014.7 |
| 20260503194047 | 61 | 130 | 6.0 | 13.0 | 0.00 | 0.00 | 0.00 | 24 | 1014.8 |
| 20260503193544 | 61 | 114 | 11.0 | 17.0 | 0.00 | 0.00 | 0.00 | 29 | 1014.8 |
| 20260503193039 | 61 | 65 | 9.0 | 15.0 | 0.00 | 0.00 | 0.00 | 28 | 1014.8 |
| 20260503192535 | 61 | 94 | 10.0 | 15.0 | 0.00 | 0.00 | 0.00 | 29 | 1014.9 |
| 20260503192031 | 60 | 72 | 10.0 | 16.0 | 0.00 | 0.00 | 0.00 | 31 | 1015.1 |
| 20260503191528 | 60 | 102 | 15.0 | 17.0 | 0.00 | 0.00 | 0.00 | 29 | 1015.1 |
| 20260503191025 | 61 | 75 | 11.0 | 14.0 | 0.00 | 0.00 | 0.00 | 27 | 1015.1 |
| 20260503190522 | 60 | 73 | 2.0 | 9.0 | 0.00 | 0.00 | 0.00 | 27 | 1015.2 |
| 20260503190019 | 60 | 131 | 14.0 | 15.0 | 0.00 | 0.00 | 0.00 | 28 | 1015.2 |
| 20260503185515 | 60 | 105 | 13.0 | 15.0 | 0.00 | 0.00 | 0.00 | 29 | 1015.4 |
| 20260503185015 | 59 | 138 | 7.0 | 15.0 | 0.00 | 0.00 | 0.00 | 33 | 1015.3 |
| 20260503184511 | 59 | 97 | 6.0 | 14.0 | 0.00 | 0.00 | 0.00 | 29 | 1015.6 |
| 20260503184008 | 59 | 100 | 9.0 | 19.0 | 0.00 | 0.00 | 0.00 | 31 | 1015.6 |
| 20260503183504 | 59 | 108 | 13.0 | 17.0 | 0.00 | 0.00 | 0.00 | 31 | 1015.8 |
| 20260503183001 | 60 | 147 | 11.0 | 15.0 | 0.00 | 0.00 | 0.00 | 31 | 1015.8 |
| 20260503182500 | 59 | 136 | 8.0 | 18.0 | 0.00 | 0.00 | 0.00 | 31 | 1015.6 |
| 20260503181957 | 59 | 79 | 8.0 | 14.0 | 0.00 | 0.00 | 0.00 | 30 | 1015.6 |
| 20260503181454 | 59 | 107 | 7.0 | 13.0 | 0.00 | 0.00 | 0.00 | 30 | 1016.0 |
| 20260503180950 | 58 | 150 | 8.0 | 15.0 | 0.00 | 0.00 | 0.00 | 28 | 1015.6 |
| 20260503180449 | 57 | 145 | 3.0 | 13.0 | 0.00 | 0.00 | 0.00 | 28 | 1016.2 |
| 20260503175945 | 57 | 127 | 4.0 | 13.0 | 0.00 | 0.00 | 0.00 | 29 | 1016.2 |
| 20260503175443 | 57 | 117 | 13.0 | 16.0 | 0.00 | 0.00 | 0.00 | 31 | 1016.0 |
| 20260503174939 | 57 | 132 | 7.0 | 14.0 | 0.00 | 0.00 | 0.00 | 29 | 1016.2 |
| 20260503174438 | 57 | 142 | 16.0 | 17.0 | 0.00 | 0.00 | 0.00 | 33 | 1016.3 |
| 20260503173938 | 57 | 109 | 9.0 | 12.0 | 0.00 | 0.00 | 0.00 | 37 | 1016.2 |
| 20260503173434 | 57 | 125 | 10.0 | 14.0 | 0.00 | 0.00 | 0.00 | 33 | 1016.1 |
| 20260503172931 | 56 | 131 | 6.0 | 18.0 | 0.00 | 0.00 | 0.00 | 34 | 1016.4 |
| 20260503172428 | 57 | 102 | 13.0 | 20.0 | 0.00 | 0.00 | 0.00 | 36 | 1016.0 |
| 20260503171924 | 56 | 100 | 8.0 | 11.0 | 0.00 | 0.00 | 0.00 | 32 | 1016.1 |
| 20260503171421 | 56 | 58 | 9.0 | 16.0 | 0.00 | 0.00 | 0.00 | 33 | 1016.2 |
| 20260503170919 | 57 | 115 | 11.0 | 16.0 | 0.00 | 0.00 | 0.00 | 34 | 1016.2 |
| 20260503170415 | 56 | 143 | 6.0 | 11.0 | 0.00 | 0.00 | 0.00 | 34 | 1016.2 |
| 20260503150807 | 50 | 104 | 8.0 | 15.0 | 0.00 | 0.00 | 0.00 | 40 | 1017.8 |
| 20260503150303 | 50 | 124 | 13.0 | 19.0 | 0.00 | 0.00 | 0.00 | 40 | 1017.8 |
| 20260503140228 | 46 | 132 | 7.0 | 12.0 | 0.00 | 0.00 | 0.00 | 40 | 1018.2 |
| 20260503131157 | 44 | 135 | 13.0 | 15.0 | 0.00 | 0.00 | 0.00 | 46 | 1017.7 |
| 20260503130654 | 44 | 147 | 11.0 | 15.0 | 0.00 | 0.00 | 0.00 | 47 | 1017.9 |
| 20260503130152 | 44 | 129 | 7.0 | 8.0 | 0.00 | 0.00 | 0.00 | 50 | 1017.7 |
| 20260503120117 | 46 | 114 | 1.0 | 4.0 | 0.00 | 0.00 | 0.00 | 54 | 1017.4 |
| 20260503110544 | 32 | 41 | 2.0 | 2.0 | 0.00 | 0.00 | 0.00 | 79 | 1016.8 |
| 20260503090431 | 32 | 55 | 4.0 | 5.0 | 0.00 | 0.00 | 0.00 | 88 | 1014.8 |
| 20260503081358 | 32 | 86 | 2.0 | 3.0 | 0.00 | 0.00 | 0.00 | 91 | 1014.8 |
| 20260503080855 | 32 | 89 | 3.0 | 3.0 | 0.00 | 0.00 | 0.00 | 91 | 1014.6 |
| 20260503080352 | 32 | 97 | 2.0 | 2.0 | 0.00 | 0.00 | 0.00 | 91 | 1014.5 |
| 20260503072828 | 33 | 102 | 2.0 | 2.0 | 0.00 | 0.00 | 0.00 | 90 | 1014.5 |
| 20260503072325 | 32 | 63 | 2.0 | 4.0 | 0.00 | 0.00 | 0.00 | 90 | 1014.3 |
| 20260503071821 | 33 | 119 | 2.0 | 3.0 | 0.00 | 0.00 | 0.00 | 90 | 1014.4 |
| 20260503071319 | 33 | 70 | 3.0 | 3.0 | 0.00 | 0.00 | 0.00 | 90 | 1014.2 |
| 20260503070815 | 33 | 121 | 2.0 | 3.0 | 0.00 | 0.00 | 0.00 | 90 | 1014.3 |
| 20260503070313 | 33 | 79 | 6.0 | 6.0 | 0.00 | 0.00 | 0.00 | 90 | 1014.2 |
| 20260503060244 | 32 | 81 | 3.0 | 3.0 | 0.00 | 0.00 | 0.00 | 87 | 1014.3 |
| 20260503054731 | 33 | 113 | 0.0 | 2.0 | 0.00 | 0.00 | 0.00 | 86 | 1014.1 |
| 20260503054228 | 33 | 100 | 2.0 | 3.0 | 0.00 | 0.00 | 0.00 | 86 | 1014.4 |
| 20260503053726 | 33 | 68 | 1.0 | 4.0 | 0.00 | 0.00 | 0.00 | 86 | 1014.2 |
| 20260503053224 | 33 | 61 | 3.0 | 4.0 | 0.00 | 0.00 | 0.00 | 85 | 1014.4 |
| 20260503052720 | 33 | 112 | 2.0 | 3.0 | 0.00 | 0.00 | 0.00 | 84 | 1014.2 |
| 20260503052217 | 33 | 101 | 1.0 | 2.0 | 0.00 | 0.00 | 0.00 | 83 | 1014.3 |
| 20260503051712 | 33 | 126 | 3.0 | 4.0 | 0.00 | 0.00 | 0.00 | 84 | 1014.3 |
| 20260503051210 | 34 | 69 | 2.0 | 2.0 | 0.00 | 0.00 | 0.00 | 83 | 1014.3 |
| 20260503050706 | 34 | 111 | 1.0 | 2.0 | 0.00 | 0.00 | 0.00 | 84 | 1014.0 |
| 20260503050203 | 34 | 269 | 0.0 | 1.0 | 0.00 | 0.00 | 0.00 | 83 | 1014.2 |
| 20260503045701 | 34 | 75 | 2.0 | 3.0 | 0.00 | 0.00 | 0.00 | 82 | 1014.4 |
| 20260503045158 | 34 | 61 | 3.0 | 3.0 | 0.00 | 0.00 | 0.00 | 80 | 1014.1 |
| 20260503044654 | 34 | 94 | 2.0 | 3.0 | 0.00 | 0.00 | 0.00 | 80 | 1014.0 |
| 20260503044152 | 34 | 84 | 3.0 | 3.0 | 0.00 | 0.00 | 0.00 | 79 | 1014.1 |
| 20260503043648 | 35 | 117 | 3.0 | 3.0 | 0.00 | 0.00 | 0.00 | 78 | 1014.1 |
| 20260503043146 | 35 | 92 | 2.0 | 3.0 | 0.00 | 0.00 | 0.00 | 77 | 1014.0 |
| 20260503042641 | 36 | 105 | 3.0 | 4.0 | 0.00 | 0.00 | 0.00 | 76 | 1014.1 |
| 20260503042138 | 36 | 88 | 2.0 | 2.0 | 0.00 | 0.00 | 0.00 | 76 | 1014.2 |
| 20260503041635 | 36 | 219 | 1.0 | 2.0 | 0.00 | 0.00 | 0.00 | 76 | 1014.1 |
| 20260503041132 | 36 | 132 | 4.0 | 4.0 | 0.00 | 0.00 | 0.00 | 75 | 1013.9 |